513  
SXUS52 KTAE 100516  
OSOTAE  
OSOTAE  
NORTH FLORIDA/SOUTH ALABAMA/SOUTHWEST GEORGIA WEATHER ROUNDUP  
NATIONAL WEATHER SERVICE TALLAHASSEE FLORIDA  
100 AM EDT WED AUG 10 2022  
 
NOTE: "FAIR" INDICATES FEW OR NO CLOUDS BELOW 12,000 FEET WITH NO  
SIGNIFICANT WEATHER AND/OR OBSTRUCTIONS TO VISIBILITY.  
 
!FLZ017-115-028-034-025-100600   
..NORTH FLORIDA
 
 
 
CITY SKY/WX TMP DP RH WIND PRES REMARKS  
TALL INTL ARPT PTCLDY 72 71 97 E5 30.15S  
FSU LOVE BLDG N/A 73 70 88 E3 N/A  
APALACHICOLA PTCLDY 76 76 100 CALM 30.12F  
PERRY NOT AVBL  
CROSS CITY PTCLDY 74 73 98 N5 30.17S  
JACKSONVILLE MOCLDY 77 75 93 NW3 30.17S  

 
 
!FLZ112-006-005-002-011-100600   
..FLORIDA PANHANDLE
 
 
 
CITY SKY/WX TMP DP RH WIND PRES REMARKS  
MARIANNA PTCLDY 73 72 96 CALM 30.13R  
BONIFAY NOT AVBL  
PANAMA CITY NW FAIR 75 73 93 E3 30.12S  
TYNDALL AFB PTCLDY 77 73 87 E5 30.11F  
TYND DRONE APT FAIR 77 74 91 E7 30.09F  
DE FUNIAK SPR FAIR 74 72 95 CALM 30.14R  
EGLIN AFB CLOUDY 80 71 74 E5 30.09F  
DESTIN NOT AVBL  
HURLBURT MOCLDY 76 71 83 CALM 30.10S  
CRESTVIEW PTCLDY 73 72 96 CALM 30.14R  
PENSACOLA PTCLDY 77 76 96 NE3 30.10S  

 
 
!ALZ063-066-100600   
..SOUTH ALABAMA
 
 
 
CITY SKY/WX TMP DP RH WIND PRES REMARKS  
DOTHAN MOCLDY 74 74 100 SE7 30.17R  
OZARK CAIRNS MOCLDY 75 72 92 SE3 30.12R  
FT RUCKER HELI CLOUDY 75 74 96 CALM 30.16S  
RUCKER HELI 3 FAIR 76 74 93 S5 30.12R  
RUCKER HELI 2 CLOUDY 75 75 99 CALM 30.11R  
FLORALA APT PTCLDY 75 71 87 S3 30.15R  
ANDALUSIA NOT AVBL  
TROY MOCLDY 74 71 91 CALM 30.13R  
EUFALA NOT AVBL  
MOBILE PTCLDY 78 73 84 E3 30.11R  

 
 
!GAZ120>161-100600   
..SOUTHWEST AND SOUTH CENTRAL GEORGIA
 
 
 
CITY SKY/WX TMP DP RH WIND PRES REMARKS  
THOMASVILLE FAIR 70 70 100 SE5 30.19R  
BAINBRIDGE PTCLDY 72 71 98 SE6 30.15S  
MOODY AFB PTCLDY 71 69 94 SE3 30.17S  
VALDOSTA PTCLDY 73 71 93 SE6 30.18S  
MOULTRIE PTCLDY 72 70 94 SE7 30.18R  
BLAKELY PTCLDY 72 70 94 CALM 30.16R  
ALBANY MOCLDY 73 71 93 S3 30.16R  
TIFTON N/A 71 71 99 CALM 30.17S  
FITZGERALD FAIR 72 70 95 CALM 30.17S  
CORDELE LGT RAIN 73 70 89 SE12 30.17R  
AMERICUS NOT AVBL  
HOMERVILLE FAIR 72 70 94 SE3 30.19S  

 
 
!GMZ750-755-770-775-100600   
..COASTAL AND BUOY OBS
 
 
 
STATION/POSITION TIME TEMP WIND PRES VSBY WAVE  
AIR SEA DIR/SP/G HT/PER  
(UTC) (F) (DEG/KT/KT) (MB) (MI) (FT/S)  
KEATON BEACH 0500 73 90/ 12/ 13 1021.2R  
CEDAR KEY 0500 82 80/ 9/ 11 1021.4R  
C TOWER 0500 84 1020.6R  
APALACHICOLA BUO 0450 85 140/ 12/ 14 1019.0 2/ 5  
PANAMA CITY BUOY 0440 83 90/ 12/ 14 1020.4R  
MOBILE BUOY 0450 82 85 120/ 8/ 10 1019.5R 3/ 6  
ORANGE BCH AL BU 0440 82 85 130/ 10/ 12 1018.8F  

 
 
 
CLICK HERE TO GO TO PREVIOUS BULLETINS.

The Nexlab FL Page
The Nexlab GA Page
The Nexlab AL Page Main Text Page